Simultaneous Nadir Overpasses (SNOs) Predictions

Prediction of SNOs between LANDSAT-8 and METOP-B Satellite Orbit:

Table of predicted SNOs for the next 14.0 days since TLE Epoch: 4/8/2023
Index Date (LANDSAT-8) Time (LANDSAT-8) Lat,Lon (LANDSAT-8) SZA (LANDSAT-8 ) Date (METOP-B) Time (METOP-B) Lat,Lon (METOP-B) SZA (METOP-B ) Distance(km) Time Diff (sec)
1 04/09/2023 12:15:19 -81.12,-144.50 104.49 04/09/2023 12:14:26 -81.13,-144.32 104.49 3.12 53
2 04/09/2023 13:04:44 81.15, 23.59 75.57 04/09/2023 13:05:05 81.15, 23.70 75.59 1.91 21
3 04/12/2023 07:49:29 -81.13, -77.89 105.48 04/12/2023 07:48:50 -81.12, -78.07 105.53 3.31 39
4 04/12/2023 08:38:54 81.16, 90.17 74.57 04/12/2023 08:39:28 81.16, 90.30 74.60 2.33 34
5 04/15/2023 03:23:39 -81.13, -11.51 106.49 04/15/2023 03:23:13 -81.13, -11.54 106.51 0.44 26
6 04/15/2023 04:13:04 81.15, 156.52 73.56 04/15/2023 04:13:52 81.15, 156.44 73.57 1.39 48
7 04/17/2023 22:57:47 -81.13, 55.00 107.46 04/17/2023 22:57:35 -81.13, 54.91 107.48 1.61 12
8 04/17/2023 23:47:12 81.16,-137.00 72.59 04/17/2023 23:48:14 81.15,-137.13 72.60 2.43 62
9 04/20/2023 17:42:29 81.12, -46.34 71.58 04/20/2023 17:41:18 81.11, -46.43 71.53 1.68 71



Historial Predications of SNOs between LANDSAT-8 and METOP-B
